{"data":{"norad_id":54113,"intl_designator":"2022-138A","name":"ONEWEB-0490","alt_names":[],"object_type":"PAYLOAD","status":"ACTIVE","operator":null,"country":"UK","launch_date":"2022-10-22","launch_site_code":"SRILR","launch_vehicle":null,"mission":null,"orbit_class":"UNKNOWN","rcs_meters":null,"size_class":null,"mass_kg":null,"dimensions":null,"purposes":["comms"],"wikipedia_slug":null,"has_3d_model":false,"image_url":null,"decayed_at":null,"tle_current":{"epoch":"2026-09-19T08:59:46.471488Z","epoch_age_seconds":123099,"freshness":"FRESH","line1":"1 54113U 22138A   26262.37484342  .00000006  00000+0 -17599-4 0  9994","line2":"2 54113  87.9109 286.2037 0001916  87.0983 273.0369 13.19723749189251","mean_motion":13.19723749,"eccentricity":0.0001916,"inclination_deg":87.9109,"raan_deg":286.2037,"arg_perigee_deg":87.0983,"mean_anomaly_deg":273.0369,"bstar":-1.7599e-5,"rev_number":18925,"period_min":109.11374453109,"perigee_km":1184.3260864089,"apogee_km":1187.2245776145,"semimajor_km":7563.9123320117,"source":"CELESTRAK","updated_at":"2026-09-20T09:00:44.714866Z"}}}